Terminal Aerodrome Forecast
Issued by NWS

Home | Current Version | Previous Version | Text Only | Print | Product List | Glossary Off
Versions: 1 2 3 4 5 6 7 8 9 10 11 12 13 14 15 16 17 18 19 20 21

000
FTUS43 KICT 260520
TAFCNU
TAF
KCNU 260520Z 2606/2706 03006KT P6SM VCTS SCT035 BKN060CB
     FM261200 VRB04KT P6SM SCT020 BKN250
     FM261600 13007KT P6SM SCT030=

USA.gov is the U.S. government's official web portal to all federal, state and local government web resources and services.